Hourly Weather Roundup
Issued by NWS Central Illinois

Home | Current Version | Previous Version | Text Only | Print | Product List | Glossary On
Versions: 1 2 3 4 5 6 7 8 9 10 11 12 13 14 15 16 17 18 19 20 21 22 23 24 25 26 27 28 29 30 31 32 33 34 35 36 37 38 39 40 41 42 43 44 45 46 47 48 49 50
000
NZUS43 KILX 221810
HWRILX

AREA WEATHER ROUNDUP
NATIONAL WEATHER SERVICE, LINCOLN IL
100 PM CDT WED OCT 22 2014


CITY           SKY/WX    TMP DP  RH WIND       PRES   REMARKS
BLOOMINGTON    FAIR      56  39  52 VRB7      30.33F
6HR MIN TEMP:  36; 6HR MAX TEMP:  56;

CHAMPAIGN      SUNNY     56  37  49 E9        30.32F
6HR MIN TEMP:  33; 6HR MAX TEMP:  57;

DECATUR        FAIR      56  39  53 E10       30.33F
6HR MIN TEMP:  35; 6HR MAX TEMP:  57;

FLORA          SUNNY     56  38  50 NE5       30.32F
6HR MIN TEMP:  39; 6HR MAX TEMP:  57;

GALESBURG      FAIR      56  41  56 SE8       30.31F
JACKSONVILLE   FAIR      60  42  52 E9        30.30F
6HR MIN TEMP:  35; 6HR MAX TEMP:  60;

LACON          FAIR      56  37  49 SE6       30.32F
6HR MIN TEMP:  31; 6HR MAX TEMP:  56;

LAWRENCEVILLE  SUNNY     57  40  52 NE5       30.31F
6HR MIN TEMP:  40; 6HR MAX TEMP:  58;

LITCHFIELD     FAIR      57  41  55 CALM      30.30F
$$


CITY           SKY/WX    TMP DP  RH WIND       PRES   REMARKS
LINCOLN        FAIR      58  39  48 E7        30.30F
6HR MIN TEMP:  34; 6HR MAX TEMP:  59;

MACOMB         FAIR      56  41  55 SE10      30.32F
MATTOON        FAIR      56  38  50 E8        30.30F
6HR MIN TEMP:  34; 6HR MAX TEMP:  56;

MT CARMEL AP   SUNNY     59  39  47 NE8       30.30F
OLNEY-NOBLE AP FAIR      55  37  50 CALM      30.31F HAZE
PARIS          SUNNY     57  40  53 E3        30.32F
6HR MIN TEMP:  37; 6HR MAX TEMP:  57;

PEORIA         FAIR      58  39  49 SE9       30.31F
6HR MIN TEMP:  38; 6HR MAX TEMP:  58;

PONTIAC        FAIR      55  36  48 SE5       30.34F
RANTOUL        SUNNY     59  36  42 E7        30.33F
ROBINSON       SUNNY     59  40  48 E7        30.32F
6HR MIN TEMP:  37; 6HR MAX TEMP:  60;

SPRINGFIELD    FAIR      58  41  53 E7        30.31F
6HR MIN TEMP:  35; 6HR MAX TEMP:  58;

TAYLORVILLE    FAIR      55  37  50 SE6       30.31F
$$

...REGIONAL REPORTS...


CITY           SKY/WX    TMP DP  RH WIND       PRES   REMARKS
CHICAGO O`HARE MOSUNNY   54  38  54 E5        30.34F
KANKAKEE       SUNNY     55  39  55 NE3       30.34F
MOLINE         FAIR      56  40  55 SE9       30.30F
MOUNT VERNON   FAIR      57  43  58 NE7       30.31F
PITTSFIELD     FAIR      60  41  49 SE5       30.30F
QUINCY         FAIR      58  42  55 S7        30.28F
ROCKFORD       FAIR      57  38  48 S6        30.35F
$$


CITY           SKY/WX    TMP DP  RH WIND       PRES   REMARKS
BURLINGTON     FAIR      57  43  59 SE9       30.29F
CEDAR RAPIDS   FAIR      56  43  61 SE12      30.27F
DES MOINES     PTSUNNY   59  44  57 SE16      30.19F
KIRKSVILLE     FAIR      61  47  59 SE13      30.26F
OTTUMWA        NOT AVBL
ST LOUIS       FAIR      59  43  55 E5        30.30F
$$


CITY           SKY/WX    TMP DP  RH WIND       PRES   REMARKS
TERRE HAUTE    SUNNY     57  40  52 VRB6      30.31F
EVANSVILLE     SUNNY     58  39  49 NE7       30.29F
INDIANAPOLIS   MOSUNNY   54  40  59 VRB7      30.30F
LAFAYETTE      SUNNY     53  36  52 E7        30.33F
MADISON        FAIR      54  39  57 S7        30.33F
MILWAUKEE      MOSUNNY   51  40  65 E8        30.35F
$$





USA.gov is the U.S. government's official web portal to all federal, state and local government web resources and services.